{"data":{"norad_id":69048,"intl_designator":"2026-101Z","name":"STARLINK-37663","alt_names":[],"object_type":"PAYLOAD","status":"ACTIVE","operator":null,"country":"US","launch_date":"2026-05-06","launch_site_code":"AFWTR","launch_vehicle":null,"mission":null,"orbit_class":"UNKNOWN","rcs_meters":null,"size_class":null,"mass_kg":null,"dimensions":null,"purposes":["comms"],"wikipedia_slug":null,"has_3d_model":false,"image_url":null,"decayed_at":null,"tle_current":{"epoch":"2026-09-18T03:51:29.918016Z","epoch_age_seconds":239441,"freshness":"STALE","line1":"1 69048U 26101Z   26261.16076294  .00005455  00000+0  17122-3 0  9993","line2":"2 69048  97.2844 114.7287 0001983  88.6769 271.4701 15.33437893 20828","mean_motion":15.33437893,"eccentricity":0.0001983,"inclination_deg":97.2844,"raan_deg":114.7287,"arg_perigee_deg":88.6769,"mean_anomaly_deg":271.4701,"bstar":0.00017122,"rev_number":2082,"period_min":93.906639882415,"perigee_km":464.20721401985,"apogee_km":466.92142596336,"semimajor_km":6843.7013199916,"source":"CELESTRAK","updated_at":"2026-09-20T09:00:44.063180Z"}}}